Flugplatz Perleberg (UL)

Hier findest Du alle Informationen zum Flugplatz Perleberg (UL).

Informationen für Piloten zum Flugplatz Perleberg

Hier findest Du alle relevanten Informationen, die Du als Pilot benötigst, um Perleberg anzufliegen.

Flugplatz: Perleberg ICAO-Code: UL Flugplatz
Frequenz Turm: 122,30 Mhz GAFOR Gebiet: -
Frequenz Ground: 122,30 Mhz Mogas: nein
Platzrunde: N 1000 ft Landegebühr: 3 €
Platzhöhe: Sunrise: 04:52 Uhr UTC
Pisten: 11/29 - 1400 m x 50 m, GRAS Sunset: 17:42 Uhr UTC

Mitglieder, die in Perleberg fliegen

Flugwetter am Flugplatz Perleberg

Die METAR Information stammen aus EDOP (40.37 km entfernt).

METAR Code:
2017/03/23 06:50
EDOP 230650Z 07006KT 9999 OVC039 06/02 Q1020

Flugschulen am Flugplatz Perleberg

Am Flugplatz Perleberg gibt es leider keine Flugschule.

Benachbarte Flugplätze und Flugschulen

Es gibt 10 weitere Flugplätze in einem Umkreis von 50 km um den Flugplatz Perleberg.

Jetzt anmelden

Passwort vergessen

Umfrage Archiv

In welcher Höhe sollte das max. Leergewicht begrenzt werden, wenn ULs 600 kg MTOW hätten?

max. 350,0 kg
48.9 %
keine Begrenzung
15.1 %
max. 375,0 kg
12.1 %
max. 325,0 kg
10.2 %
max. 400,0 kg
8.4 %
max. 300,0 kg
3.3 %
max. 275,0 kg
1.9 %
Stimmen: 628 | Diskussion (46)
Anzeige: Roland Aircraft
Statistik Alle Mitglieder

Aktuell sind 31 Besucher online, davon 1 Mitglied und 30 Gäste.


Mitglieder online:
Chris_EDNC 

Anzeige: VFR Sprechfunk Simulator


Anzeige: Pocket FMS